CZ-6A DEB, 54275

Orbit data source: Space-Track

CZ-6A DEB, 54275 is space debris in SSO originally from a launch on Fri, 11 Nov 2022 UTC launched from the Taiyaun Space Center, China (TSC). Debris objects in space refer to the collection of defunct objects orbiting the Earth. Examples of debris include non-operational satellites, rocket bodies, and fragments generated from explosions, collisions, or faulty payload assembly.

Loading next visibility...
Identifier
54275, 2022-151S
Orbit
SSO
Country
Flag of CNCN / PRC
Related business
Manufacturer
SAST
Mission
Spacecraft
Bus & Motor
Unknown
Mass
Unknown
Launch date (UTC)
2022-11-11 (4 years ago)
Launch vehicle
Unknown
Launch site
Taiyaun Space Center, China (TSC)
Object type
Payload
Rocket body
Debris
Shape & HBR
Unknown shape, 0.1 m
Radar Cross Section
Small (<0.1 m²)

Expand to show TLE details & history
Last TLE update: 1 day ago

TLE from 1 day ago
0 CZ-6A DEB
1 54275U 22151S   26262.26987153  .00005369  00000-0  79861-3 0  9990
2 54275  98.8201  12.0285 0073475 346.6214  13.3042 14.73604385204058
Epoch: 2026-09-19T06:28Z
TLE epoch observation values (Epoch: 2026-09-19T06:28:36.900Z)
Latitude
0.00002°
Longitude
-83.30607°
Altitude
602.328 km
Speed
7.585 km/s
True Right ascension
00h 48m 06s
True Declination
0° 00' 00"
Sunlit
Object was in full shadow at epoch
Visualization orbit readout
Latitude
Unknown
Longitude
Unknown
Altitude
Unknown
Speed
Unknown
Apparent Right ascension
Unknown
Apparent Declination
Unknown
Sunlit
N/A
Visualization observer readout
Local Sidereal Time
10:58:07
Azimuth
Unknown
Elevation
Unknown
Doppler factor
Unknown
Orbital elements
Apogee altitude
698.292 km
Perigee altitude
595.063 km
Semi-major axis
7,024.815 km
Eccentricity
0.00735
Inclination
98.8201°
RAAN
12.0285°
Arg. of periapsis
346.6214°
True anomaly
13.4997°
Mean anomaly
13.3042°
Eccentric anomaly
13.40177°
Mean motion
3.6863 °/min
Orbital period
97.66 mins
BSTAR
0.00079861
Loading maneuver chart data...
Computing Atmospheric mass density...
Loading historical data...
Loading historical data...
Loading historical data...
Loading historical data...
Loading historical data...
Loading historical data...
Loading historical data...

Documentation

Showing up to 5 results
|